User: anonymous   Login
Location: Chuathbaluk
(61.5726°N, 159.2454°W)
Time: 21:09:37
(UTC+00:00)
Language:

Explorer 11/Cluster Stage 4 - Orbit

View from above orbital plane
View from above orbital plane
View from above satellite
View from above satellite

Ground track
Ground track

The orbit data is extracted from the following two-line orbital elements,

1 00107U 61013A   21209.85779050  .00000542  00000-0  50200-4 0  9996
2 00107  28.7915  45.7201 0545519 217.2139 138.9407 14.09269251 23607
Epoch (UTC): 28 July 2021 20:35:13
Eccentricity: 0.0545519
inclination: 28.7915°
perigee height: 467 km
apogee height: 1257 km
right ascension of ascending node: 45.7201°
argument of perigee: 217.2139°
revolutions per day: 14.09269251
mean anomaly at epoch: 138.9407°
orbit number at epoch: 2360

The dashed part of the orbit path shows where the satellite is in the earth's shadow,  

DLR